sat.trackr.live / text

‹ back to catalog

STARLINK-36279

NORAD 67193 · 2025-304B

PAYLOAD ACTIVE UNKNOWN

§ Identity

Operator
Country
US
Launch date
2025-12-17
Launch site
AFWTR
Launch vehicle
Mass (kg)
RCS (m²)

Purposes: comms

External: N2YO · Heavens-Above · Gunter

§ Orbital elements

Epoch: 2026-05-24T23:39:35.864064Z

Period
96.11 min
Inclination
70.0017°
Eccentricity
0.0002663
Mean motion
14.98342210 rev/d
Perigee alt
570.2 km
Apogee alt
573.9 km
Semi-major
6,950.2 km
B*
3.5130e-4
RAAN
342.0655°
Arg perigee
266.4256°
Mean anomaly
93.6599°
Rev number
2,531

§ Raw data

STARLINK-362791 67193U 25304B   26144.98583176  .00004102  00000+0  35130-3 0  99952 67193  70.0017 342.0655 0002663 266.4256  93.6599 14.98342210 25312

JSON: /api/v1/satellites/67193 · /tle

For live sub-satellite position, see the globe view (requires WebGL).

§ Visibility from observer

Set your observer location to see the next 7 days of passes ≥ 10°. The values pass through the URL so the page stays shareable.

No JS? Fill the form by hand. The geolocation button needs JavaScript.